Terminal Aerodrome Forecast
Issued by NWS Dallas/Fort Worth, TX

Home | Current Version | Previous Version | Text Only | Print | Product List | Glossary On
Versions: 1 2 3 4 5 6 7 8 9 10 11 12 13 14 15 16 17 18 19 20 21 22 23 24 25
601
FTUS44 KFWD 110850 AAA
TAFACT
TAF AMD
KACT 110850Z 1109/1206 22010KT P6SM SKC WS015/24045KT
     FM111500 21010KT P6SM SKC
     FM112300 04007KT P6SM SKC=

USA.gov is the U.S. government's official web portal to all federal, state and local government web resources and services.